Temp
4 4 4 5 5 5 5 5 5 5 5 6 6 6 6 6 6 7 7 7 7 7 7 8 8 8 8 8 8 8 8 9 8 8 7 8 8 8 8 7 7 8 8 8 8
4 4 4 4 4 4 4 5 5 5 5 5 6 6 6 6 6 6 6 7 7 7 7 7 7 7 8 8 8 7 8 8 7 7 7 7 7 7 7 7 6 7 7 7 7
3 4 3 4 4 4 4 4 5 5 5 5 5 5 5 6 6 6 6 6 6 6 6 7 7 7 7 7 7 7 7 7 7 7 7 6 7 7 7 7 7 6 7 6 6
3 3 3 3 3 3 4 4 4 4 4 5 5 5 5 5 4 5 5 5 5 6 6 7 7 7 7 7 7 6 7 6 7 6 6 6 6 6 6 6 7 7 7 7 6
3 3 3 3 3 3 3 3 4 4 4 5 5 5 5 5 5 5 4 5 5 5 6 6 6 6 6 7 7 6 7 6 6 6 6 6 6 5 6 6 6 6 6 6 6
3 3 3 2 3 2 2 3 3 4 4 5 5 5 5 5 5 5 4 5 5 5 5 6 6 6 6 6 6 7 7 6 6 6 6 6 6 6 6 6 6 6 5 5 5
2 2 2 2 2 2 2 2 3 3 3 4 4 4 5 4 4 4 4 4 5 4 5 5 5 6 6 6 6 6 6 6 7 6 6 6 4 5 5 5 5 5 4 4 4
1 2 2 2 2 2 2 2 2 3 3 3 3 4 5 4 4 4 4 4 4 4 5 5 5 5 6 5 6 6 6 6 4 6 6 5 7 5 5 4 4 4 4 4 4
1 1 2 1 1 1 1 1 1 1 2 3 4 3 4 4 4 4 4 4 4 4 4 4 4 5 5 5 4 5 7 5 5 5 5 5 5 4 4 4 4 3 3 3 3
1 1 1 1 1 1 1 1 1 1 2 2 2 3 3 3 4 4 4 5 4 4 4 4 4 4 4 4 7 6 5 4 5 3 3 3 4 3 3 3 3 3 3 3 3
0 0 0 1 0 0 0 0 0 1 2 2 2 3 4 3 3 4 4 4 4 4 3 3 3 4 4 3 4 3 3 3 4 2 3 3 3 3 3 3 3 3 3 3 3
-0 -0 -0 -0 -0 -0 -0 -0 -0 0 1 2 1 2 3 2 2 3 3 3 3 2 3 3 3 2 4 4 3 1 2 3 2 3 2 3 3 3 2 2 2 2 2 2 2
-1 -2 -1 -2 -1 -2 -1 -1 -1 -0 -0 2 2 2 2 2 3 2 2 2 3 1 3 2 2 3 3 3 2 1 2 3 2 2 2 2 4 4 3 3 2 2 2 1 1
-1 -0 -1 -0 -1 -1 -1 -2 -2 -1 -2 -1 2 2 3 3 2 4 2 1 1 1 1 0 1 2 3 1 1 3 1 1 1 1 4 1 5 4 2 2 2 2 1 1 1
-1 -1 -1 -1 -1 -1 -0 -1 -1 -1 0 1 1 2 2 3 2 4 3 0 0 0 1 1 1 2 2 1 1 2 2 0 1 1 2 3 2 5 2 1 1 1 1 0 -0
-2 -2 -2 -2 -1 -1 -1 -1 -2 -2 1 0 1 1 2 2 1 2 2 1 0 -1 -1 0 -1 0 1 1 1 0 0 -0 0 1 3 4 3 5 3 1 0 0 -0 -0 -1
-3 -2 -2 -2 -2 -2 -2 -2 -4 -1 -0 -0 0 1 1 1 0 1 2 1 0 -1 -1 -1 -1 -1 0 -0 0 -1 1 3 4 3 5 1 1 3 2 0 0 -0 -1 -1 -1
-3 -3 -3 -3 -3 -3 -4 -4 -4 -0 -1 -0 0 0 -1 0 -2 -0 -1 -1 -0 -0 1 0 1 -1 0 -0 1 -0 1 3 3 4 5 -0 2 3 1 0 -0 -1 -1 -2 -2
-5 -4 -3 -3 -3 -4 -5 -5 -2 -1 -1 -1 -0 -1 -1 -0 -1 -1 -1 -1 -0 1 2 1 1 0 1 1 -1 -1 -0 0 1 1 1 2 3 2 1 -1 -1 -1 -2 -2 -3
-6 -6 -3 -4 -4 -5 -6 -5 -4 -3 -2 -1 -0 -0 0 -1 -0 -1 -1 0 1 1 1 1 0 -0 0 0 -0 -0 -0 -0 -0 0 1 3 3 2 0 -1 -1 -2 -2 -3 -3
-8 -8 -5 -6 -6 -6 -7 -4 -4 -4 -3 -2 -2 -1 -1 -1 -0 -1 -0 0 0 0 0 -0 0 -1 -1 -1 -0 -1 -1 -1 -0 0 2 2 1 0 -1 -1 -1 -2 -3 -3 -4
-8 -8 -6 -7 -7 -7 -6 -4 -5 -5 -4 -3 -2 -2 -1 -1 -0 -1 -1 0 0 -0 -0 -0 -1 -0 -0 -1 -0 -0 -0 -0 -0 1 -0 -0 -1 -0 -1 -1 -2 -3 -3 -4 -4
-8 -9 -7 -8 -6 -5 -6 -5 -6 -5 -5 -5 -3 -2 -2 -1 -1 -1 -1 -1 -0 -0 -0 -0 -1 -0 -1 -2 -1 -1 -1 -1 -2 -2 -1 -1 -1 -1 -2 -2 -3 -4 -5 -5 -5
-9 -9 -8 -8 -6 -7 -6 -5 -6 -6 -6 -5 -5 -3 -3 -2 -2 -2 -2 -1 -1 -1 -1 -1 -1 -1 1 -0 -1 -2 -2 -1 -2 -2 -1 -1 -2 -1 -3 -3 -4 -5 -4 -5 -5
-9 -8 -8 -8 -8 -6 -7 -7 -7 -6 -6 -6 -5 -5 -4 -3 -3 -3 -3 -2 -2 -2 -2 -3 -3 -2 -2 -2 -2 -2 -2 -3 -2 -2 -3 -3 -3 -3 -3 -4 -4 -4 -4 -4 -4
-9 -9 -8 -9 -7 -8 -7 -7 -6 -6 -6 -6 -6 -4 -5 -5 -5 -4 -5 -4 -4 -3 -4 -4 -4 -3 -2 -2 -3 -3 -3 -3 -3 -3 -4 -3 -3 -4 -3 -3 -4 -4 -4 -4 -5
-9 -10 -8 -9 -8 -8 -7 -6 -6 -6 -6 -6 -6 -6 -5 -5 -5 -5 -4 -5 -5 -4 -4 -4 -4 -3 -3 -4 -5 -4 -2 -2 -2 -3 -4 -3 -3 -3 -4 -4 -4 -4 -4 -5 -5
Height
3154 3155 3158 3158 3159 3159 3160 3160 3160 3160 3160 3160 3159 3159 3157 3157 3156 3154 3153 3152 3151 3151 3151 3150 3150 3150 3150 3150 3151 3152 3155 3154 3155 3155 3154 3154 3155 3156 3157 3159 3158 3158 3158 3159 3159
3150 3150 3152 3153 3154 3155 3155 3155 3156 3157 3157 3157 3155 3155 3155 3154 3153 3151 3151 3149 3148 3148 3149 3149 3149 3149 3149 3149 3149 3151 3152 3152 3150 3151 3152 3153 3154 3154 3157 3156 3157 3154 3155 3155 3155
3144 3145 3147 3148 3149 3150 3151 3151 3151 3151 3152 3153 3152 3151 3152 3151 3150 3147 3146 3146 3145 3146 3147 3147 3148 3148 3147 3147 3147 3148 3151 3147 3148 3148 3149 3150 3152 3151 3153 3156 3153 3151 3152 3152 3152
3139 3141 3142 3143 3144 3145 3146 3146 3147 3147 3147 3147 3147 3148 3147 3148 3150 3144 3143 3144 3143 3143 3144 3144 3145 3146 3146 3145 3145 3147 3146 3145 3145 3146 3146 3146 3147 3148 3147 3148 3149 3148 3148 3148 3148
3134 3135 3137 3138 3139 3140 3140 3140 3140 3142 3143 3142 3142 3143 3143 3143 3142 3140 3139 3140 3141 3140 3141 3142 3142 3144 3143 3143 3143 3144 3144 3144 3144 3144 3144 3143 3144 3143 3143 3143 3143 3143 3143 3143 3143
3127 3129 3131 3132 3133 3134 3134 3135 3135 3136 3137 3137 3138 3138 3138 3138 3136 3134 3135 3136 3138 3138 3139 3139 3139 3142 3141 3141 3142 3141 3141 3141 3142 3141 3140 3141 3140 3140 3139 3138 3138 3137 3137 3138 3138
3120 3122 3124 3127 3127 3128 3128 3129 3130 3129 3131 3132 3131 3132 3132 3134 3131 3131 3131 3132 3134 3136 3136 3136 3137 3139 3139 3139 3139 3139 3139 3138 3138 3139 3138 3139 3138 3136 3136 3135 3135 3134 3134 3134 3134
3113 3114 3117 3120 3121 3122 3122 3123 3124 3123 3125 3127 3126 3126 3125 3126 3125 3126 3128 3129 3130 3132 3133 3134 3134 3135 3136 3137 3137 3137 3137 3138 3135 3135 3135 3136 3138 3133 3133 3132 3131 3131 3131 3131 3130
3104 3107 3109 3112 3114 3115 3116 3117 3117 3117 3120 3121 3122 3122 3121 3119 3121 3123 3125 3126 3127 3128 3129 3130 3131 3132 3133 3134 3136 3134 3134 3134 3134 3131 3132 3134 3134 3129 3130 3130 3129 3129 3128 3127 3126
3094 3098 3101 3104 3107 3108 3110 3110 3110 3110 3115 3116 3115 3119 3118 3116 3116 3118 3120 3121 3123 3124 3125 3127 3128 3130 3129 3132 3132 3132 3131 3130 3130 3130 3128 3129 3130 3123 3126 3126 3126 3125 3124 3123 3122
3083 3088 3091 3094 3095 3099 3101 3103 3106 3106 3107 3109 3110 3111 3112 3112 3112 3115 3117 3118 3119 3122 3123 3123 3127 3128 3128 3126 3127 3127 3128 3127 3127 3125 3123 3124 3125 3126 3121 3121 3121 3122 3121 3119 3117
3074 3078 3080 3084 3088 3090 3093 3096 3098 3099 3099 3101 3102 3103 3106 3107 3107 3110 3114 3115 3116 3119 3119 3121 3122 3123 3121 3121 3122 3123 3125 3125 3123 3121 3119 3120 3119 3120 3114 3116 3117 3117 3116 3115 3113
3067 3069 3071 3076 3077 3083 3087 3091 3093 3093 3094 3089 3094 3093 3098 3100 3100 3103 3107 3108 3111 3113 3114 3118 3119 3117 3119 3118 3118 3118 3119 3121 3122 3120 3116 3114 3112 3112 3110 3110 3112 3112 3111 3110 3109
3060 3062 3064 3069 3072 3075 3081 3087 3090 3092 3091 3083 3084 3080 3086 3089 3087 3096 3095 3104 3103 3107 3109 3110 3112 3113 3113 3115 3116 3116 3114 3114 3116 3117 3117 3113 3108 3108 3106 3107 3108 3107 3107 3106 3105
3049 3055 3058 3060 3065 3070 3076 3081 3087 3093 3089 3075 3073 3075 3076 3082 3078 3084 3088 3093 3097 3099 3104 3106 3105 3109 3110 3110 3111 3113 3110 3111 3112 3113 3113 3113 3112 3101 3101 3103 3103 3103 3102 3101 3098
3042 3046 3050 3054 3058 3064 3070 3075 3081 3091 3076 3070 3070 3070 3071 3073 3075 3079 3081 3085 3090 3098 3097 3100 3100 3104 3108 3108 3108 3107 3108 3108 3108 3111 3106 3102 3106 3097 3098 3100 3100 3099 3098 3096 3093
3033 3038 3044 3047 3052 3058 3063 3069 3079 3073 3068 3067 3066 3069 3067 3069 3073 3076 3076 3078 3084 3090 3090 3096 3095 3099 3101 3105 3107 3107 3108 3104 3101 3100 3097 3099 3101 3097 3097 3094 3096 3096 3093 3091 3088
3025 3030 3036 3040 3045 3051 3057 3063 3064 3060 3063 3062 3063 3067 3067 3066 3070 3072 3074 3077 3078 3081 3083 3088 3091 3092 3093 3096 3103 3104 3105 3100 3095 3090 3091 3096 3092 3089 3090 3090 3091 3090 3088 3085 3083
3015 3020 3027 3033 3039 3045 3050 3054 3050 3054 3055 3058 3062 3065 3066 3064 3067 3069 3070 3073 3074 3076 3081 3082 3086 3086 3088 3091 3097 3097 3100 3099 3097 3095 3095 3090 3087 3087 3083 3085 3086 3085 3082 3080 3077
3008 3013 3019 3025 3031 3039 3042 3042 3044 3045 3047 3052 3056 3060 3062 3061 3064 3066 3068 3067 3071 3073 3075 3079 3082 3083 3085 3088 3090 3092 3095 3097 3097 3093 3086 3080 3081 3082 3080 3081 3081 3079 3076 3074 3071
3001 3005 3012 3017 3024 3028 3029 3031 3040 3040 3043 3049 3052 3055 3058 3055 3059 3060 3063 3065 3066 3068 3071 3074 3078 3081 3082 3083 3086 3089 3090 3092 3092 3090 3084 3080 3076 3078 3076 3077 3075 3072 3069 3067 3064
2994 2997 3003 3011 3016 3016 3021 3021 3034 3035 3039 3042 3047 3052 3053 3053 3055 3058 3059 3060 3063 3065 3067 3070 3073 3076 3079 3078 3081 3083 3085 3087 3086 3084 3082 3081 3070 3074 3071 3072 3069 3066 3062 3059 3058
2984 2989 2994 3002 3002 3005 3012 3017 3025 3031 3033 3038 3043 3047 3049 3050 3053 3053 3054 3057 3059 3062 3064 3066 3069 3072 3075 3078 3077 3077 3079 3081 3082 3081 3077 3076 3066 3066 3068 3066 3061 3057 3052 3050 3049
2977 2981 2985 2990 2992 3001 3007 3009 3017 3021 3028 3033 3038 3042 3045 3047 3048 3049 3051 3053 3056 3058 3061 3064 3065 3066 3066 3068 3070 3072 3073 3075 3075 3074 3071 3065 3065 3059 3063 3061 3057 3050 3045 3042 3041
2960 2967 2972 2977 2986 2991 3002 3005 3011 3016 3020 3025 3030 3034 3040 3043 3045 3045 3049 3049 3052 3054 3056 3060 3061 3063 3063 3064 3065 3068 3069 3068 3066 3065 3067 3056 3056 3057 3055 3051 3047 3043 3039 3037 3034
2950 2959 2967 2974 2983 2988 2993 2995 3003 3010 3015 3017 3021 3028 3032 3035 3039 3042 3045 3046 3049 3052 3053 3055 3058 3060 3058 3059 3060 3060 3060 3060 3058 3055 3055 3052 3042 3050 3044 3041 3039 3037 3034 3031 3029
2941 2953 2961 2967 2972 2980 2984 2990 2995 3007 3010 3014 3016 3023 3026 3029 3032 3035 3038 3040 3044 3047 3047 3050 3053 3055 3055 3054 3056 3054 3048 3049 3049 3047 3048 3045 3042 3041 3036 3034 3032 3029 3026 3025 3023
Wind_Speed
23 22 22 22 22 21 22 21 21 20 19 19 19 18 17 16 17 17 16 16 14 13 10 8 6 5 6 10 11 11 6 8 7 10 9 15 12 12 11 3 4 10 12 14 15
26 25 24 24 24 24 24 24 23 23 23 22 21 21 19 17 17 18 19 18 15 12 11 9 7 6 5 7 10 8 7 8 9 11 9 15 14 13 8 6 4 13 14 14 15
29 28 27 27 27 27 27 27 26 26 24 24 23 22 22 20 18 20 16 13 13 12 11 10 9 6 7 7 7 9 7 10 10 10 10 10 10 13 13 8 16 15 16 17 17
31 30 30 29 29 29 29 29 29 29 27 26 25 24 22 20 12 11 14 15 12 11 10 10 9 8 6 7 7 4 9 9 11 12 10 10 11 8 15 17 18 21 22 22 22
34 33 32 32 31 31 31 31 31 30 30 28 27 25 22 22 21 21 22 18 14 13 12 10 8 7 8 7 6 7 8 8 9 11 12 12 12 13 16 17 19 19 20 21 22
35 35 34 33 33 32 33 32 32 31 32 28 29 28 25 23 19 19 19 17 14 13 11 10 7 7 7 8 8 8 9 9 10 12 14 12 14 14 15 15 17 17 17 17 17
37 36 35 35 33 34 34 33 34 32 31 30 28 29 25 21 20 16 15 15 13 14 13 10 9 8 7 8 9 10 8 8 10 12 16 12 9 17 17 15 14 11 11 13 13
39 37 37 36 35 34 34 34 34 33 31 29 24 20 21 16 20 15 17 17 17 16 16 14 12 12 10 9 11 10 11 6 10 10 12 9 6 16 15 14 13 11 12 12 13
44 41 39 38 37 37 35 35 34 35 32 26 27 19 20 16 17 16 17 20 19 16 17 17 15 13 12 8 8 10 9 7 6 13 12 11 8 17 18 18 17 17 18 19 20
44 44 43 36 39 37 33 33 33 31 29 28 25 14 16 16 14 13 12 19 22 20 20 19 17 15 13 7 10 8 7 9 10 7 11 13 15 23 21 22 21 22 22 22 23
37 34 34 37 30 32 31 28 29 31 32 27 15 14 18 13 13 9 15 14 18 21 18 19 13 11 11 14 14 12 9 11 11 11 18 15 15 17 21 20 21 22 21 22 23
47 46 46 39 34 33 31 31 27 34 32 32 30 31 26 30 27 26 22 20 21 16 19 17 14 15 20 19 17 12 11 13 13 13 16 14 17 16 23 22 21 20 19 18 19
36 37 40 33 37 27 22 25 24 28 34 36 31 33 32 38 39 36 33 31 26 21 22 16 10 16 19 19 12 12 13 12 11 11 16 17 25 22 20 16 12 14 16 16 17
36 33 30 28 31 25 23 22 22 26 18 23 27 35 33 33 42 33 33 30 30 23 19 16 18 20 20 16 15 15 12 12 12 10 10 4 11 12 14 14 8 16 9 11 17
34 35 30 28 30 27 23 25 25 18 6 8 21 23 15 22 27 24 33 34 28 24 28 11 10 8 10 13 14 10 12 7 7 10 14 15 12 5 12 9 9 5 12 18 20
32 32 31 31 31 27 25 22 20 13 10 8 9 15 18 20 20 20 23 36 35 28 22 21 18 15 10 11 9 9 5 6 8 11 13 18 16 13 6 4 6 13 15 21 21
31 32 31 29 27 25 23 23 14 18 10 9 12 14 14 17 18 18 18 21 18 18 26 21 22 17 19 11 12 11 7 5 7 7 8 1 10 21 17 15 14 12 19 19 22
32 32 31 30 29 26 25 28 12 20 24 10 14 16 11 14 14 17 15 15 21 15 11 18 9 22 20 24 12 16 16 9 7 7 10 4 9 8 13 17 12 17 17 19 23
34 33 35 31 27 28 34 31 21 24 23 23 12 11 14 15 11 15 16 14 17 21 10 11 7 14 11 12 19 10 11 11 13 15 13 16 20 20 19 9 16 14 25 22 20
34 34 42 33 30 32 40 34 25 23 17 20 25 15 14 17 16 15 15 11 17 18 16 9 6 13 13 13 17 13 10 4 8 5 11 11 19 24 19 15 17 25 23 22 25
29 31 39 35 35 40 45 44 27 19 21 18 18 16 15 17 19 18 10 12 17 17 21 15 10 7 14 17 14 17 12 10 10 13 9 12 15 17 18 26 25 26 29 30 24
31 36 39 37 44 46 44 49 33 19 22 20 18 17 16 19 17 17 17 16 16 12 16 17 9 9 14 16 19 18 15 14 13 13 16 15 30 27 32 21 32 36 35 26 27
35 37 34 43 48 44 46 45 40 27 22 23 20 17 17 16 13 18 19 18 12 12 9 13 10 10 6 10 17 20 18 19 17 18 26 19 23 29 27 35 38 38 37 30 29
40 43 32 47 42 45 47 49 40 39 32 27 20 25 19 16 18 16 14 13 14 14 14 12 18 15 19 6 3 10 17 19 17 21 26 31 31 42 32 30 29 30 29 29 27
49 34 45 42 57 42 46 39 39 37 34 29 28 28 28 22 22 14 15 13 10 8 9 11 15 20 22 21 22 21 21 18 26 29 26 39 38 36 31 30 24 23 23 22 22
48 39 39 32 49 50 45 37 36 36 30 37 29 26 26 29 25 15 18 15 16 17 18 17 14 19 19 20 21 23 26 23 30 36 33 41 46 27 27 24 24 25 26 22 19
44 44 33 33 33 40 57 47 42 30 32 30 36 32 26 26 27 22 23 17 13 13 13 14 18 16 14 8 8 19 31 29 27 23 24 27 29 23 27 28 27 25 23 21 18
Wind_Direction
245 248 253 255 259 262 267 272 276 280 285 288 292 295 298 297 294 294 298 295 295 293 296 301 301 290 254 241 234 233 228 224 208 193 208 209 203 211 219 178 207 225 226 234 242
245 247 250 255 259 263 265 269 273 278 283 286 291 295 298 295 291 287 289 290 287 284 286 287 284 283 267 250 238 225 222 217 210 209 211 221 220 229 224 231 235 248 247 252 260
245 248 252 256 259 262 266 269 272 275 280 285 288 292 296 298 295 289 286 289 282 276 276 284 284 278 261 248 236 230 212 225 223 214 215 230 245 248 241 241 235 246 256 259 262
248 249 252 254 258 263 266 271 274 277 280 283 286 289 294 295 292 270 277 285 288 267 266 274 271 265 262 251 239 231 234 232 238 245 242 242 245 256 244 240 243 245 251 254 261
249 250 252 255 259 263 266 269 271 276 279 282 285 287 289 289 282 269 272 276 276 268 262 270 269 252 243 251 252 245 250 245 252 260 264 264 265 258 271 263 259 259 260 266 271
250 251 253 254 257 262 266 269 271 275 277 281 285 288 289 287 286 268 261 260 267 260 255 258 254 250 249 253 254 257 260 258 253 256 265 270 270 274 267 269 274 276 276 276 275
250 251 253 256 258 261 265 270 273 274 278 280 285 288 283 281 277 260 244 249 256 253 250 251 254 255 260 274 268 269 269 279 267 260 258 263 263 262 268 275 277 290 297 288 284
250 251 253 255 257 260 264 267 271 273 276 279 276 280 282 267 264 245 241 254 256 250 249 252 255 260 270 274 269 273 278 240 258 257 258 258 243 263 259 270 281 289 297 300 299
248 254 254 254 257 260 261 264 269 270 273 277 273 279 273 263 243 242 253 253 249 245 251 254 259 263 279 288 274 261 244 234 246 253 254 255 261 271 265 272 279 286 291 294 294
248 247 251 252 251 256 253 259 260 261 262 269 271 264 248 249 230 244 266 243 245 246 249 253 253 262 287 261 266 242 236 245 239 261 260 259 264 274 267 274 277 280 285 290 293
231 242 239 232 236 236 254 251 256 263 254 257 243 230 240 226 232 248 250 251 245 248 240 243 249 259 258 274 262 254 246 255 261 272 274 272 265 264 272 274 273 276 283 289 292
244 247 245 256 244 250 252 251 253 256 268 258 253 239 237 252 258 263 262 262 252 232 239 250 256 262 273 276 267 256 260 273 275 275 277 284 274 273 272 274 273 279 285 289 293
256 267 264 274 266 274 256 245 255 262 268 262 255 253 245 248 255 257 262 258 251 229 240 242 246 263 275 281 261 246 244 258 267 275 286 288 288 262 281 269 265 278 285 285 292
251 251 251 256 258 266 244 241 246 259 275 271 264 260 253 252 256 241 252 243 233 230 239 256 263 269 265 248 246 252 257 255 267 281 279 295 290 278 253 273 271 289 278 288 298
237 240 239 234 251 246 243 236 238 240 264 247 237 239 236 227 233 231 228 227 224 234 239 245 252 251 255 247 235 240 258 232 242 259 277 270 268 285 252 256 254 242 295 306 301
234 236 233 232 233 234 234 224 211 193 240 235 219 220 215 218 222 217 219 224 233 229 246 234 249 243 246 240 205 226 200 239 261 262 259 269 236 296 238 230 232 282 299 301 298
229 230 230 229 231 229 221 210 178 214 229 233 221 221 203 213 219 214 217 210 198 192 226 238 238 232 231 215 224 206 216 252 232 202 261 263 267 260 283 277 274 278 296 301 300
223 222 224 222 217 212 203 194 201 229 222 217 211 216 202 202 209 213 202 199 204 203 176 201 203 205 223 221 234 234 230 233 262 270 277 223 261 293 287 283 274 299 298 300 298
217 212 216 217 216 201 188 191 215 223 214 217 212 204 209 208 201 205 205 213 215 198 187 182 189 189 196 204 202 227 219 231 253 267 271 259 273 284 286 300 294 294 312 311 297
220 213 213 204 209 194 192 204 218 213 217 212 213 212 210 205 208 199 202 230 216 209 206 205 155 189 197 199 204 203 207 186 213 254 262 266 285 289 282 290 302 306 313 310 305
215 209 214 193 196 195 199 214 219 224 207 202 214 217 215 203 212 207 214 214 207 214 210 208 201 196 199 205 210 208 225 230 238 252 271 283 275 281 284 295 300 303 304 309 299
212 207 211 193 194 201 204 216 209 223 207 209 219 217 218 219 215 211 210 204 202 188 190 202 193 200 217 230 220 218 233 235 237 247 246 273 269 280 289 298 300 301 303 298 291
211 206 207 191 202 207 203 217 220 220 221 214 210 210 214 213 211 212 212 207 184 188 200 204 200 205 219 242 232 229 238 240 245 255 258 265 269 276 283 294 299 300 302 295 290
215 202 209 204 208 206 214 222 216 224 224 225 221 219 225 219 210 209 197 191 205 214 221 224 222 222 241 269 167 218 243 248 238 246 261 262 271 283 286 294 294 293 299 289 287
200 200 207 203 204 205 211 216 223 219 220 220 226 229 228 222 219 197 187 178 194 206 211 229 244 244 253 265 270 260 252 240 238 257 258 273 278 283 289 292 288 293 297 292 286
205 200 203 212 211 212 204 209 213 214 221 212 214 225 223 226 228 232 239 234 238 245 226 251 247 257 257 255 250 253 257 254 260 268 262 271 275 290 288 290 290 289 281 285 283
204 199 202 209 208 211 215 216 218 215 219 226 232 238 231 232 235 227 226 214 215 229 227 224 233 245 254 231 255 267 269 270 272 266 259 266 282 285 279 286 292 288 278 277 275